Weather History for KMQB - September, 2012

Change the Weather History Date:

Wednesday, September 12, 2012

  Actual Average (KBRL) Record (KBRL)
Temperature  
Mean Temperature 73 °F 69 °F  
Max Temperature 88 °F 80 °F 98 °F (1927)
Min Temperature 58 °F 58 °F 39 °F (1955)
Degree Days  
Heating Degree Days 0 1  
Month to date heating degree days 8  
Since 1 July heating degree days 12  
Cooling Degree Days 8 5  
Month to date cooling degree days 81  
Year to date cooling degree days 1124  
Growing Degree Days 23 (Base 50)    
Moisture  
Dew Point 57 °F    
Average Humidity 62    
Maximum Humidity 93    
Minimum Humidity 26    
Precipitation  
Precipitation 0.00 in 0.11 in 1.46 in (2008)
Month to date precipitation 1.51  
Year to date precipitation 28.76  
Sea Level Pressure  
Sea Level Pressure 30.13 in    
Wind  
Wind Speed 7 mph (South)    
Max Wind Speed 12 mph    
Max Gust Speed 17 mph    
Visibility 10 miles    
Events      
T = Trace of Precipitation, MM = Missing Value Source: NWS Daily Summary

Daily Weather History Graph

Daily Weather History Graph

Search for Another Location

Airport or City:

Trip Planner

Search our weather history database for the weather conditions in past years. The results will help you decide how hot, cold, wet, or windy it might be!

Date:

Astronomy

Sep. 12, 2012 Rise Set
Actual Time 6:40 AM CDT 7:15 PM CDT
Civil Twilight 6:13 AM CDT 7:43 PM CDT
Nautical Twilight 5:40 AM CDT 8:15 PM CDT
Astronomical Twilight 5:07 AM CDT 8:48 PM CDT
Moon 2:57 AM CDT (9/12) 5:04 PM CDT (9/12)
Length of Visible Light 13h 29m
Length of Day
12h 34m
Waning Crescent, 13% of the Moon is Illuminated
Sep 12
Waning Crescent
Sep 15
New
Sep 22
First Quarter
Sep 29
Full
Oct 8
Last Quarter

Hourly Weather History & Observations

Time (CDT) Temp. Heat Index Dew Point Humidity Pressure Visibility Wind Dir Wind Speed Gust Speed Precip Events Conditions
12:15 AM 64.4 °F - 57.2 °F 77% 30.10 in 10.0 mi South 5.8 mph - N/A   Clear
12:35 AM 63.7 °F - 57.2 °F 79% 30.10 in 10.0 mi South 5.8 mph - N/A   Clear
12:55 AM 64.0 °F - 57.2 °F 78% 30.11 in 10.0 mi South 5.8 mph - N/A   Clear
1:15 AM 64.6 °F - 57.4 °F 77% 30.11 in 10.0 mi South 6.9 mph - N/A   Clear
1:35 AM 65.3 °F - 57.4 °F 76% 30.11 in 10.0 mi South 6.9 mph - N/A   Clear
1:55 AM 64.9 °F - 57.4 °F 76% 30.11 in 10.0 mi South 6.9 mph - N/A   Clear
2:15 AM 63.7 °F - 57.4 °F 80% 30.11 in 10.0 mi South 5.8 mph - N/A   Clear
2:35 AM 63.5 °F - 57.4 °F 80% 30.11 in 10.0 mi South 5.8 mph - N/A   Clear
2:55 AM 63.5 °F - 57.4 °F 80% 30.11 in 10.0 mi South 6.9 mph - N/A   Clear
3:15 AM 63.0 °F - 57.2 °F 81% 30.11 in 10.0 mi South 5.8 mph - N/A   Clear
3:35 AM 62.6 °F - 57.2 °F 82% 30.11 in 10.0 mi South 6.9 mph - N/A   Clear
3:55 AM 61.3 °F - 57.2 °F 86% 30.11 in 10.0 mi South 5.8 mph - N/A   Clear
4:15 AM 60.3 °F - 56.8 °F 88% 30.11 in 10.0 mi SSE 3.5 mph - N/A   Clear
4:35 AM 58.6 °F - 56.1 °F 91% 30.11 in 10.0 mi SSE 4.6 mph - N/A   Clear
4:55 AM 58.6 °F - 56.3 °F 92% 30.11 in 10.0 mi South 3.5 mph - N/A   Clear
5:15 AM 59.4 °F - 56.7 °F 91% 30.11 in 10.0 mi SSE 4.6 mph - N/A   Clear
5:35 AM 59.5 °F - 57.2 °F 92% 30.11 in 10.0 mi SSE 5.8 mph - N/A   Clear
5:55 AM 59.2 °F - 56.7 °F 91% 30.12 in 10.0 mi South 4.6 mph - N/A   Clear
6:15 AM 58.5 °F - 56.3 °F 93% 30.13 in 10.0 mi SSE 3.5 mph - N/A   Clear
6:35 AM 58.5 °F - 56.3 °F 93% 30.14 in 10.0 mi South 3.5 mph - N/A   Clear
6:55 AM 58.1 °F - 55.9 °F 93% 30.14 in 10.0 mi SSE 3.5 mph - N/A   Clear
7:15 AM 58.5 °F - 56.5 °F 93% 30.15 in 10.0 mi South 3.5 mph - N/A   Clear
7:35 AM 60.1 °F - 58.1 °F 93% 30.16 in 10.0 mi South 3.5 mph - N/A   Clear
7:55 AM 62.4 °F - 59.0 °F 89% 30.16 in 10.0 mi South 5.8 mph - N/A   Clear
8:15 AM 65.5 °F - 59.0 °F 80% 30.16 in 10.0 mi South 5.8 mph - N/A   Clear
8:35 AM 68.0 °F - 58.6 °F 72% 30.16 in 10.0 mi South 8.1 mph - N/A   Clear
8:55 AM 69.8 °F - 59.0 °F 68% 30.17 in 10.0 mi South 6.9 mph - N/A   Clear
9:15 AM 72.3 °F - 59.4 °F 64% 30.17 in 10.0 mi South 8.1 mph - N/A   Clear
9:35 AM 74.8 °F - 59.4 °F 58% 30.17 in 10.0 mi SSW 6.9 mph - N/A   Clear
9:55 AM 76.3 °F - 59.0 °F 55% 30.17 in 10.0 mi SSW 8.1 mph - N/A   Clear
10:15 AM 77.2 °F - 59.0 °F 53% 30.18 in 10.0 mi SSW 9.2 mph - N/A   Clear
10:35 AM 77.9 °F - 59.5 °F 53% 30.18 in 10.0 mi SW 8.1 mph - N/A   Clear
10:55 AM 79.3 °F - 59.7 °F 51% 30.18 in 10.0 mi SW 9.2 mph - N/A   Clear
11:15 AM 81.0 °F 81.5 °F 59.7 °F 48% 30.17 in 10.0 mi SW 6.9 mph - N/A   Clear
11:35 AM 83.1 °F 83.2 °F 59.7 °F 45% 30.17 in 10.0 mi SSW 6.9 mph - N/A   Clear
11:55 AM 83.5 °F 83.4 °F 59.2 °F 44% 30.17 in 10.0 mi SSE 8.1 mph - N/A   Clear
12:15 PM 84.2 °F 83.8 °F 58.6 °F 42% 30.16 in 10.0 mi SSW 10.4 mph - N/A   Clear
12:35 PM 85.6 °F 84.8 °F 58.1 °F 39% 30.15 in 10.0 mi South 8.1 mph - N/A   Clear
12:55 PM 86.0 °F 85.0 °F 57.7 °F 38% 30.14 in 10.0 mi South 10.4 mph 16.1 mph N/A   Clear
1:15 PM 86.4 °F 85.2 °F 57.6 °F 37% 30.13 in 10.0 mi SSW 10.4 mph - N/A   Clear
1:35 PM 85.8 °F 84.7 °F 56.5 °F 37% 30.13 in 10.0 mi South 8.1 mph - N/A   Scattered Clouds
1:55 PM 87.4 °F 85.5 °F 54.0 °F 32% 30.11 in 10.0 mi SSW 11.5 mph 16.1 mph N/A   Scattered Clouds
2:15 PM 87.4 °F 85.3 °F 53.1 °F 31% 30.11 in 10.0 mi South 8.1 mph 17.3 mph N/A   Scattered Clouds
2:35 PM 88.5 °F - 52.9 °F 29% 30.11 in 10.0 mi South 11.5 mph - N/A   Clear
2:55 PM 87.1 °F - 52.9 °F 31% 30.10 in 10.0 mi SSW 9.2 mph - N/A   Clear
3:15 PM 88.0 °F 85.7 °F 53.1 °F 30% 30.10 in 10.0 mi South 11.5 mph - N/A   Scattered Clouds
3:35 PM 88.0 °F - 52.3 °F 29% 30.10 in 10.0 mi SSW 10.4 mph 17.3 mph N/A   Scattered Clouds
3:55 PM 88.0 °F - 49.1 °F 26% 30.09 in 10.0 mi South 10.4 mph 16.1 mph N/A   Scattered Clouds
4:15 PM 87.8 °F - 51.4 °F 29% 30.09 in 10.0 mi South 10.4 mph - N/A   Clear
4:55 PM 86.9 °F - 51.4 °F 29% 30.09 in 10.0 mi South 10.4 mph 16.1 mph N/A   Clear
5:15 PM 86.5 °F - 51.4 °F 30% 30.09 in 10.0 mi South 11.5 mph 16.1 mph N/A   Clear
5:35 PM 86.2 °F - 52.0 °F 31% 30.09 in 10.0 mi South 10.4 mph - N/A   Clear
5:55 PM 85.1 °F - 52.2 °F 32% 30.09 in 10.0 mi South 9.2 mph - N/A   Clear
6:15 PM 83.8 °F 82.4 °F 53.1 °F 35% 30.09 in 10.0 mi South 8.1 mph - N/A   Clear
6:35 PM 82.0 °F 81.3 °F 53.8 °F 38% 30.10 in 10.0 mi South 6.9 mph - N/A   Clear
6:55 PM 79.2 °F - 55.2 °F 44% 30.10 in 10.0 mi South 5.8 mph - N/A   Clear
7:15 PM 76.6 °F - 55.9 °F 49% 30.11 in 10.0 mi South 5.8 mph - N/A   Clear
7:35 PM 73.4 °F - 56.8 °F 56% 30.11 in 10.0 mi SSE 6.9 mph - N/A   Clear
7:55 PM 71.6 °F - 57.4 °F 61% 30.11 in 10.0 mi SSE 6.9 mph - N/A   Clear
8:15 PM 72.0 °F - 57.4 °F 60% 30.12 in 10.0 mi SSE 6.9 mph - N/A   Clear
8:35 PM 71.2 °F - 57.6 °F 62% 30.12 in 10.0 mi South 6.9 mph - N/A   Clear
8:55 PM 70.7 °F - 57.7 °F 63% 30.13 in 10.0 mi South 5.8 mph - N/A   Clear
9:15 PM 69.8 °F - 57.7 °F 65% 30.13 in 10.0 mi South 5.8 mph - N/A   Clear
9:35 PM 69.1 °F - 57.7 °F 67% 30.13 in 10.0 mi South 5.8 mph - N/A   Clear
9:55 PM 68.0 °F - 57.9 °F 70% 30.13 in 10.0 mi South 5.8 mph - N/A   Clear
10:15 PM 67.3 °F - 58.1 °F 72% 30.13 in 10.0 mi SSE 5.8 mph - N/A   Clear
10:35 PM 66.4 °F - 58.1 °F 75% 30.13 in 10.0 mi South 5.8 mph - N/A   Clear
10:55 PM 65.3 °F - 57.9 °F 77% 30.14 in 10.0 mi South 5.8 mph - N/A   Clear
11:15 PM 65.3 °F - 57.7 °F 76% 30.14 in 10.0 mi South 5.8 mph - N/A   Clear
11:35 PM 65.1 °F - 57.7 °F 77% 30.14 in 10.0 mi South 5.8 mph - N/A   Clear
11:55 PM 66.6 °F - 57.9 °F 74% 30.14 in 10.0 mi South 5.8 mph - N/A   Clear